EHI
0 0 0 0 0 0 0 0 0 0 0 0 0 0 0 0 0 0 0 0 0 0 0 0 0 0 0 0 0 0 0 0 0 0 0 0 0 0 0 0 0 0 0
0 0 0 0 0 0 0 0 0 0 0 0 0 0 0 0 0 0 0 0 0 0 0 0 0 0 0 0 0 0 0 0 0 0 0 0 0 0 0 0 0 0 0
0 0 0 0 0 0 0 0 0 0 0 0 0 0 0 0 0 0 0 0 0 0 0 0 0 0 0 0 0 0 0 0 0 0 0 0 0 0 0 0 0 0 0
0 0 0 0 0 0 0 0 0 0 0 0 0 0 0 0 0 0 0 0 0 0 0 0 0 0 0 0 0 0 0 0 0 0 0 0 0 0 0 0 0 0 0
0 0 0 0 0 0 0 0 0 0 0 0 0 0 0 0 0 0 0 0 0 0 0 0 0 0 0 0 0 0 0 0 0 0 0 0 0 0 0 0 0 0 0
0 0 0 0 0 0 0 0 0 0 0 0 0 0 0 0 0 0 0 0 0 0 0 0 0 0 0 0 0 0 0 0 0 0 0 0 0 0 0 0 0 0 0
0 0 0 0 0 0 0 0 0 0 0 0 0 0 0 0 0 0 0 0 0 0 0 0 0 0 0 0 0 0 0 0 0 0 0 0 0 0 0 0 0 0 0
0 0 0 0 0 0 0 0 0 0 0 0 0 0 0 0 0 0 0 0 0 0 0 0 0 0 0 0 0 0 0 0 0 0 0 0 0 0 0 0 0 0 0
0 0 0 0 0 0 0 0 0 0 0 0 0 0 0 0 0 0 0 0 0 0 0 0 0 0 0 0 0 0 0 0 0 0 0 0 0 0 0 0 0 0 0
0 0 0 0 0 0 0 0 0 0 0 0 0 0 0 0 0 0 0 0 0 0 0 0 0 0 0 0 0 0 0 0 0 0 0 0 0 0 0 0 0 0 0
0 0 0 0 0 0 0 0 0 0 0 0 0 0 0 0 0 0 0 0 0 0 0 0 0 0 0 0 0 0 0 0 0 0 0 0 0 0 0 0 0 0 0
0 0 0 0 0 0 0 0 0 0 0 0 0 0 0 0 0 0 0 0 0 0 0 0 0 0 0 0 0 0 0 0 0 0 0 0 0 0 0 0 0 0 0
0 0 0 0 0 0 0 0 0 0 0 0 0 0 0 0 0 0 0 0 0 0 0 0 0 0 0 0 0 0 0 0 0 0 0 0 0 0 0 0 0 0 0
0 0 0 0 0 0 0 0 0 0 0 0 0 0 0 0 0 0 0 0 0 0 0 0 0 0 0 0 0 0 0 0 0 0 0 0 0 0 0 0 0 0 0
0 0 0 0 0 0 0 0 0 0 0 0 0 0 0 0 0 0 0 0 0 0 0 0 0 0 0 0 0 0 0 0 0 0 0 0 0 0 0 0 0 0 0
0 0 0 0 0 0 0 0 0 0 0 0 0 0 0 0 0 0 0 0 0 0 0 0 0 0 0 0 0 0 0 0 0 0 0 0 0 0 0 0 0 0 0
0 0 0 0 0 0 0 0 0 0 0 0 0 0 0 0 0 0 0 0 0 0 0 0 0 0 0 0 0 0 0 0 0 0 0 0 0 0 0 0 0 0 0
0 0 0 0 0 0 0 0 0 0 0 0 0 0 0 0 0 0 0 0 0 0 0 0 0 0 0 0 0 0 0 0 0 0 0 0 0 0 0 0 0 0 0
0 0 0 0 0 0 0 0 0 0 0 0 0 0 0 0 0 0 0 0 0 0 0 0 0 0 0 0 0 0 0 0 0 0 0 0 0 0 0 0 0 0 0
0 0 0 0 0 0 0 0 0 0 0 0 0 0 0 0 0 0 0 0 0 0 0 0 0 0 0 0 0 0 0 0 0 0 0 0 0 0 0 0 0 0 0
0 0 0 0 0 0 0 0 0 0 0 0 0 0 0 0 0 0 0 0 0 0 0 0 0 0 0 0 0 0 0 0 0 0 0 0 0 0 0 0 0 0 0
0 0 0 0 0 0 0 0 0 0 0 0 0 0 0 0 0 0 0 0 0 0 0 0 0 0 0 0 0 0 0 0 0 0 0 0 0 0 0 0 0 0 0
0 0 0 0 0 0 0 0 0 0 0 0 0 0 0 0 0 0 0 0 0 0 0 0 0 0 0 0 0 0 0 0 0 0 0 0 0 0 0 0 0 0 0
0 0 0 0 0 0 0 0 0 0 0 0 0 0 0 0 0 0 0 0 0 0 0 0 0 0 0 0 0 0 0 0 0 0 0 0 0 0 0 0 0 0 0
0 0 0 0 0 0 0 0 0 0 0 0 0 0 0 0 0 0 0 0 0 0 0 0 0 0 0 0 0 0 0 0 0 0 0 0 0 0 0 0 0 0 0
0 0 0 0 0 0 0 0 0 0 0 0 0 0 0 0 0 0 0 0 0 0 0 0 0 0 0 0 0 0 0 0 0 0 0 0 0 0 0 0 0 0 0
Wind_Speed
3 3 3 3 3 3 3 4 4 5 5 5 5 5 6 6 6 5 5 13 16 17 18 19 19 19 19 19 19 18 18 18 17 17 17 16 16 15 14 14 13 12 11
4 4 3 3 3 3 3 3 4 4 4 4 5 6 6 6 6 7 6 9 17 19 20 21 22 22 22 22 21 21 21 21 20 20 20 19 19 18 17 17 16 15 15
4 4 3 3 3 3 4 3 4 3 3 4 5 6 5 6 7 7 7 6 8 16 21 23 24 24 24 24 24 24 23 23 23 23 22 22 21 21 20 20 19 18 18
5 4 3 3 4 3 3 3 3 3 4 4 4 5 5 5 8 8 7 7 6 7 14 22 24 25 26 26 26 26 26 26 25 25 25 25 24 24 23 23 22 21 20
4 3 3 3 3 3 3 3 3 3 4 4 5 5 5 6 6 7 8 9 9 8 7 15 23 25 26 27 28 28 28 28 28 28 27 27 27 27 26 25 25 24 23
3 3 2 3 3 3 3 3 4 4 4 5 6 7 6 6 7 8 10 9 8 9 9 9 10 14 24 26 27 29 30 30 30 30 30 29 29 29 29 28 27 27 26
4 3 3 3 3 3 4 4 4 5 4 3 4 5 6 9 11 11 10 9 9 9 9 9 7 7 9 22 26 27 28 30 31 31 31 31 31 31 31 30 30 29 28
3 3 3 3 3 3 5 5 4 4 4 3 2 3 5 5 6 8 7 8 9 7 7 9 8 8 7 6 14 25 26 28 30 31 31 32 32 33 33 32 32 31 31
2 2 3 3 3 4 4 5 5 5 4 4 4 4 4 5 5 4 5 5 5 5 6 6 8 9 9 8 9 18 26 28 29 30 30 31 32 33 33 33 33 33 33
2 2 2 3 3 3 4 5 5 4 5 4 4 5 6 5 4 6 4 4 5 6 7 7 8 8 9 8 12 20 26 27 28 29 29 30 31 32 33 33 34 34 34
2 2 2 2 3 3 4 5 5 5 4 5 5 4 6 5 7 8 9 6 6 7 8 9 8 8 10 10 9 15 25 27 28 29 29 29 30 31 32 33 33 34 35
1 1 2 2 3 4 5 5 5 6 6 6 6 5 5 5 6 7 10 9 9 6 7 6 7 7 7 8 12 20 25 27 28 28 28 28 28 29 30 31 32 33 34
2 2 1 2 3 4 5 5 5 6 6 7 7 6 6 7 7 7 10 12 12 8 7 6 7 8 8 7 9 19 23 27 28 28 28 27 28 28 29 31 32 33 34
2 2 3 4 5 5 5 5 5 6 6 7 9 9 7 7 7 7 8 10 14 12 7 8 6 7 7 7 10 16 15 25 26 26 26 26 27 28 29 30 31 32 33
3 3 4 5 6 6 6 6 5 7 7 7 8 8 8 7 7 7 7 7 10 17 15 8 6 6 6 6 11 9 8 18 24 25 25 25 26 27 28 29 30 31 32
4 5 5 6 6 6 6 6 6 7 7 7 7 8 9 7 7 7 7 7 8 12 18 8 6 6 7 9 16 12 9 23 25 26 26 26 26 27 28 29 29 30 31
5 5 6 6 7 7 7 7 7 8 8 8 8 9 9 9 7 6 6 7 7 8 16 14 6 6 8 8 9 9 9 10 11 24 27 28 27 27 27 28 29 29 30
5 6 6 7 7 8 7 7 8 8 8 9 8 8 9 9 9 7 7 8 8 8 12 18 10 6 8 8 9 10 11 11 8 19 27 28 28 28 28 28 28 28 28
6 6 7 7 8 8 8 8 8 8 8 9 9 9 10 10 12 9 10 10 9 11 10 14 15 8 7 8 10 11 12 10 12 16 23 26 27 28 27 27 27 28 27
7 7 7 8 8 9 9 9 9 9 9 9 10 10 11 12 13 13 12 12 11 11 11 12 14 11 8 8 8 9 10 8 10 11 15 18 22 26 26 26 26 26 26
7 8 8 9 9 8 8 9 8 9 9 10 10 10 12 17 22 19 15 11 10 11 11 12 13 12 10 8 8 8 11 9 9 8 8 10 10 8 10 18 23 24 25
8 8 9 9 9 9 17 22 18 10 9 10 10 10 12 16 20 25 27 26 22 15 12 12 13 13 13 10 9 9 10 11 11 5 8 9 7 8 7 7 17 23 24
8 9 8 9 9 11 20 24 24 15 10 9 10 10 12 13 20 13 19 25 23 27 26 18 15 15 14 11 11 12 12 13 13 6 6 9 6 9 7 10 21 22 23
8 8 8 9 9 12 22 25 25 14 9 10 10 11 13 13 14 17 13 13 13 14 17 14 13 14 14 13 12 14 14 14 13 9 8 11 8 8 8 7 18 22 22
7 8 8 9 10 12 21 24 24 9 8 10 10 12 14 13 21 27 18 14 14 13 18 25 26 24 26 27 21 11 10 11 12 8 7 8 7 7 6 7 11 20 22
8 8 8 9 10 10 18 24 24 8 9 9 9 10 18 21 25 27 17 13 15 14 12 13 16 18 16 17 23 13 9 11 11 8 5 6 6 5 5 5 6 7 10
Wind_Direction
180 191 193 198 203 202 203 209 222 239 240 237 234 233 238 241 239 233 237 248 254 257 260 261 261 261 260 260 260 258 255 254 253 253 252 252 251 250 250 250 250 251 252
188 195 200 205 212 213 216 215 225 236 239 237 239 239 240 240 242 240 233 245 251 254 257 260 261 261 260 259 259 258 257 254 252 250 250 249 249 248 248 247 247 247 248
199 199 204 212 217 220 226 229 242 253 258 257 256 254 250 246 244 243 241 232 240 249 253 257 259 260 260 259 258 257 257 256 254 251 249 248 247 247 246 246 246 245 246
203 207 209 218 225 225 225 227 233 250 257 256 254 252 249 247 245 243 241 239 232 236 248 253 257 259 260 260 259 258 257 256 255 254 251 248 246 245 245 245 244 244 244
215 214 217 224 233 239 238 235 233 235 255 265 265 262 257 254 253 251 247 242 237 235 233 250 256 261 263 264 264 262 260 257 255 254 253 251 249 246 244 244 243 243 242
231 229 230 239 246 250 250 242 245 247 247 255 271 273 267 262 260 257 254 249 242 239 236 239 247 256 260 265 266 267 265 263 259 256 254 253 251 249 246 244 243 242 242
229 225 227 239 244 245 246 245 247 257 262 261 281 289 274 255 251 251 248 246 243 239 236 236 235 236 252 259 265 268 269 267 265 262 258 255 253 251 249 246 244 242 242
236 224 219 226 236 243 251 251 247 254 260 242 239 300 308 305 268 253 246 240 240 236 236 239 239 238 237 239 252 261 268 270 271 269 265 261 257 254 252 250 247 244 242
243 239 238 238 245 239 245 246 240 241 252 251 209 211 255 273 312 302 292 275 259 247 245 244 242 240 237 234 241 255 261 267 271 272 272 270 265 260 256 253 251 247 245
205 224 245 254 257 254 255 254 243 237 238 251 251 227 225 230 268 294 285 285 292 279 269 261 253 246 240 236 238 245 256 262 267 271 273 273 272 269 264 258 254 251 248
182 202 223 254 265 261 260 261 263 252 237 236 236 241 251 251 241 258 277 272 265 257 259 257 254 250 245 239 235 243 254 261 265 268 270 272 273 274 272 267 262 256 252
265 233 216 242 257 258 258 258 256 255 250 248 245 237 236 240 244 250 267 272 270 263 260 263 265 262 256 249 245 248 252 258 262 266 268 270 272 273 273 273 270 266 260
312 300 299 276 271 264 260 256 254 254 252 252 251 250 246 246 244 251 266 276 277 274 265 262 261 266 267 259 255 252 253 258 261 264 266 268 270 271 272 272 271 270 267
283 296 295 279 275 273 271 264 259 255 252 249 252 252 252 252 248 248 257 274 283 281 263 258 258 262 272 274 271 265 260 261 263 264 265 267 269 270 271 271 270 268 267
288 292 287 279 275 272 270 268 261 260 258 254 254 255 255 255 251 251 250 249 268 283 281 264 257 261 274 282 286 286 273 271 272 270 268 268 270 271 271 270 269 268 266
291 289 284 280 278 276 273 270 268 265 264 262 259 261 262 261 257 252 251 252 250 266 279 271 255 254 265 275 282 284 280 284 281 278 275 273 273 273 272 271 269 268 265
291 288 285 284 283 281 279 277 274 275 274 274 274 274 273 272 269 265 262 260 258 260 276 282 265 261 261 267 276 276 277 274 273 276 276 275 274 273 274 274 271 268 266
292 289 288 287 285 285 283 282 283 284 282 283 284 285 287 290 285 282 278 274 271 267 274 285 284 273 267 268 270 271 275 274 267 274 275 275 274 272 272 272 272 270 268
290 288 286 285 284 284 283 279 278 278 277 278 283 285 285 286 284 281 278 277 276 276 272 279 284 279 271 267 270 270 268 268 268 272 273 273 273 273 272 271 271 270 268
285 285 282 279 279 278 277 276 275 274 273 271 271 271 274 274 275 276 275 271 271 271 268 271 277 278 273 263 262 268 272 261 264 266 268 268 268 269 269 270 271 271 269
282 279 279 277 274 275 276 275 271 267 268 269 270 271 275 280 280 282 280 273 267 267 270 271 274 277 275 270 266 266 272 271 263 255 259 260 261 258 261 267 270 271 270
279 278 276 276 277 280 290 294 295 285 277 277 281 282 283 285 285 286 286 287 284 279 277 274 278 277 278 273 270 268 272 274 274 234 246 256 244 248 245 242 256 262 266
280 280 279 279 280 283 295 299 299 297 286 283 284 285 288 285 290 282 282 283 284 282 281 278 278 277 278 273 272 274 270 269 270 252 248 262 246 249 242 250 257 259 261
278 281 284 284 285 289 299 301 302 298 286 281 279 280 281 281 279 282 276 271 266 269 272 274 268 269 269 267 260 263 267 269 266 255 240 261 253 248 247 238 250 254 258
283 284 284 285 286 290 298 301 302 291 283 281 279 280 283 282 284 289 288 282 280 275 277 275 273 275 275 276 274 269 264 269 272 262 226 245 253 249 243 240 244 250 254
280 282 283 281 282 285 296 303 304 292 287 287 283 278 283 286 289 292 289 284 284 283 276 275 275 277 277 276 279 272 267 270 273 272 226 227 239 231 250 238 232 236 247